Time,TemperatureF,DewpointF,PressureIn,WindDirection,WindDirectionDegrees,WindSpeedMPH,WindSpeedGustMPH,Humidity,HourlyPrecipIn,Conditions,Clouds,dailyrainin,SoftwareType,DateUTC
2013-02-11 00:01:00,1.0,-1.0,29.96,North,360,0.0,0.0,90,0.00,,,-99.99,,2013-02-11 07:01:00,
2013-02-11 00:11:00,0.0,-2.0,29.95,North,360,0.0,0.0,90,0.00,,,-99.99,,2013-02-11 07:11:00,
2013-02-11 00:21:00,0.0,-2.0,29.95,North,360,0.0,0.0,90,0.00,,,-99.99,,2013-02-11 07:21:00,
2013-02-11 00:31:00,0.0,-2.0,29.95,North,360,0.0,0.0,90,0.00,,,-99.99,,2013-02-11 07:31:00,
2013-02-11 00:42:00,0.0,-2.0,29.95,North,360,0.0,0.0,91,0.00,,,-99.99,,2013-02-11 07:42:00,
2013-02-11 00:52:00,0.0,-2.0,29.95,North,360,0.0,0.0,91,0.00,,,-99.99,,2013-02-11 07:52:00,
2013-02-11 01:01:00,0.0,-2.0,29.95,North,360,0.0,0.0,91,0.00,,,-99.99,,2013-02-11 08:01:00,
2013-02-11 01:11:00,1.0,-1.0,29.96,North,360,0.0,0.0,92,0.00,,,-99.99,,2013-02-11 08:11:00,
2013-02-11 01:21:00,1.0,-1.0,29.96,North,360,0.0,0.0,92,0.00,,,-99.99,,2013-02-11 08:21:00,
2013-02-11 01:32:00,0.0,-2.0,29.96,North,360,0.0,0.0,90,0.00,,,-99.99,,2013-02-11 08:32:00,
2013-02-11 01:42:00,0.0,-2.0,29.96,North,360,0.0,0.0,90,0.00,,,-99.99,,2013-02-11 08:42:00,
2013-02-11 01:52:00,0.0,-2.0,29.96,North,360,0.0,0.0,90,0.00,,,-99.99,,2013-02-11 08:52:00,
2013-02-11 02:01:00,0.0,-2.0,29.96,North,360,0.0,0.0,91,0.00,,,-99.99,,2013-02-11 09:01:00,
2013-02-11 02:12:00,0.0,-2.0,29.96,North,360,0.0,0.0,91,0.00,,,-99.99,,2013-02-11 09:12:00,
2013-02-11 02:21:00,0.0,-2.0,29.96,North,360,0.0,0.0,91,0.00,,,-99.99,,2013-02-11 09:21:00,
2013-02-11 02:31:00,0.0,-2.0,29.96,North,360,0.0,0.0,91,0.00,,,-99.99,,2013-02-11 09:31:00,
2013-02-11 02:41:00,0.0,-2.0,29.96,North,360,0.0,0.0,91,0.00,,,-99.99,,2013-02-11 09:41:00,
2013-02-11 02:52:00,0.0,-2.0,29.96,North,360,0.0,0.0,91,0.00,,,-99.99,,2013-02-11 09:52:00,
2013-02-11 03:01:00,-4.0,-7.0,29.96,North,360,0.0,0.0,87,0.00,,,-99.99,,2013-02-11 10:01:00,
2013-02-11 03:11:00,-4.0,-7.0,29.96,North,360,0.0,0.0,87,0.00,,,-99.99,,2013-02-11 10:11:00,
2013-02-11 03:21:00,-3.0,-6.0,29.96,North,360,0.0,0.0,88,0.00,,,-99.99,,2013-02-11 10:21:00,
2013-02-11 03:31:00,-3.0,-6.0,29.95,North,360,0.0,0.0,88,0.00,,,-99.99,,2013-02-11 10:31:00,
2013-02-11 03:41:00,-3.0,-6.0,29.95,North,360,0.0,0.0,88,0.00,,,-99.99,,2013-02-11 10:41:00,
2013-02-11 03:51:00,-3.0,-6.0,29.95,North,360,0.0,0.0,88,0.00,,,-99.99,,2013-02-11 10:51:00,
2013-02-11 04:01:00,-2.0,-4.0,29.95,North,360,0.0,0.0,89,0.00,,,-99.99,,2013-02-11 11:01:00,
2013-02-11 04:11:00,-2.0,-4.0,29.95,North,360,0.0,0.0,89,0.00,,,-99.99,,2013-02-11 11:11:00,
2013-02-11 04:21:00,-3.0,-6.0,29.94,North,360,0.0,0.0,88,0.00,,,-99.99,,2013-02-11 11:21:00,
2013-02-11 04:32:00,-3.0,-6.0,29.94,North,360,0.0,0.0,88,0.00,,,-99.99,,2013-02-11 11:32:00,
2013-02-11 04:42:00,-1.0,-3.0,29.95,North,360,0.0,0.0,90,0.00,,,-99.99,,2013-02-11 11:42:00,
2013-02-11 04:52:00,-1.0,-3.0,29.95,North,360,0.0,0.0,90,0.00,,,-99.99,,2013-02-11 11:52:00,
2013-02-11 05:02:00,-1.0,-3.0,29.94,North,360,0.0,0.0,89,0.00,,,-99.99,,2013-02-11 12:02:00,
2013-02-11 05:12:00,-1.0,-3.0,29.94,North,360,0.0,0.0,89,0.00,,,-99.99,,2013-02-11 12:12:00,
2013-02-11 05:22:00,-1.0,-3.0,29.94,North,360,0.0,0.0,89,0.00,,,-99.99,,2013-02-11 12:22:00,
2013-02-11 05:31:00,-6.0,-9.0,29.94,North,360,0.0,0.0,86,0.00,,,-99.99,,2013-02-11 12:31:00,
2013-02-11 05:42:00,-6.0,-9.0,29.94,North,360,0.0,0.0,87,0.00,,,-99.99,,2013-02-11 12:42:00,
2013-02-11 05:52:00,-6.0,-9.0,29.94,North,360,0.0,0.0,87,0.00,,,-99.99,,2013-02-11 12:52:00,
2013-02-11 06:01:00,-1.0,-3.0,29.94,North,360,0.0,0.0,89,0.00,,,-99.99,,2013-02-11 13:01:00,
2013-02-11 06:11:00,-3.0,-5.0,29.94,North,360,0.0,0.0,89,0.00,,,-99.99,,2013-02-11 13:11:00,
2013-02-11 06:21:00,-3.0,-5.0,29.94,North,360,0.0,0.0,89,0.00,,,-99.99,,2013-02-11 13:21:00,
2013-02-11 06:32:00,-3.0,-5.0,29.94,North,360,0.0,0.0,89,0.00,,,-99.99,,2013-02-11 13:32:00,
2013-02-11 06:41:00,-3.0,-5.0,29.94,North,360,0.0,0.0,89,0.00,,,-99.99,,2013-02-11 13:41:00,
2013-02-11 06:51:00,-3.0,-6.0,29.95,North,360,0.0,0.0,88,0.00,,,-99.99,,2013-02-11 13:51:00,
2013-02-11 07:01:00,-3.0,-6.0,29.95,North,360,0.0,0.0,88,0.00,,,-99.99,,2013-02-11 14:01:00,
2013-02-11 07:11:00,-3.0,-6.0,29.95,North,360,0.0,0.0,88,0.00,,,-99.99,,2013-02-11 14:11:00,
2013-02-11 07:21:00,-1.0,-3.0,29.95,North,360,0.0,0.0,90,0.00,,,-99.99,,2013-02-11 14:21:00,
2013-02-11 07:32:00,-2.0,-4.0,29.95,North,360,0.0,0.0,89,0.00,,,-99.99,,2013-02-11 14:32:00,
2013-02-11 07:41:00,-4.0,-7.0,29.96,North,360,0.0,0.0,87,0.00,,,-99.99,,2013-02-11 14:41:00,
2013-02-11 07:52:00,-4.0,-7.0,29.96,North,360,0.0,0.0,87,0.00,,,-99.99,,2013-02-11 14:52:00,
2013-02-11 08:01:00,-4.0,-7.0,29.96,North,360,0.0,0.0,87,0.00,,,-99.99,,2013-02-11 15:01:00,
2013-02-11 08:11:00,-4.0,-7.0,29.96,North,360,0.0,0.0,87,0.00,,,-99.99,,2013-02-11 15:11:00,
2013-02-11 08:22:00,-2.0,-4.0,29.96,North,360,0.0,0.0,89,0.00,,,-99.99,,2013-02-11 15:22:00,
2013-02-11 08:32:00,2.0,0.0,29.96,North,360,0.0,0.0,91,0.00,,,-99.99,,2013-02-11 15:32:00,
2013-02-11 08:42:00,5.0,3.0,29.97,North,360,0.0,0.0,93,0.00,,,-99.99,,2013-02-11 15:42:00,
2013-02-11 08:52:00,5.0,3.0,29.97,North,360,0.0,0.0,93,0.00,,,-99.99,,2013-02-11 15:52:00,
2013-02-11 09:01:00,6.0,4.0,29.97,North,360,0.0,0.0,93,0.00,,,-99.99,,2013-02-11 16:01:00,
2013-02-11 09:11:00,6.0,4.0,29.98,North,360,0.0,0.0,92,0.00,,,-99.99,,2013-02-11 16:11:00,
2013-02-11 09:21:00,6.0,4.0,29.98,North,360,0.0,0.0,92,0.00,,,-99.99,,2013-02-11 16:21:00,
2013-02-11 09:31:00,6.0,4.0,29.98,North,360,0.0,0.0,92,0.00,,,-99.99,,2013-02-11 16:31:00,
2013-02-11 09:41:00,8.0,7.0,29.98,North,360,0.0,0.0,94,0.00,,,-99.99,,2013-02-11 16:41:00,
2013-02-11 09:52:00,8.0,7.0,29.98,North,360,0.0,0.0,94,0.00,,,-99.99,,2013-02-11 16:52:00,
2013-02-11 10:01:00,11.0,8.0,29.98,North,360,0.0,0.0,89,0.00,,,-99.99,,2013-02-11 17:01:00,
2013-02-11 10:11:00,11.0,8.0,29.98,North,360,0.0,0.0,89,0.00,,,-99.99,,2013-02-11 17:11:00,
2013-02-11 10:21:00,10.0,6.0,29.98,North,360,0.0,0.0,85,0.00,,,-99.99,,2013-02-11 17:21:00,
2013-02-11 10:32:00,12.0,8.0,29.98,North,360,0.0,0.0,83,0.00,,,-99.99,,2013-02-11 17:32:00,
2013-02-11 10:42:00,12.0,8.0,29.98,North,360,0.0,0.0,83,0.00,,,-99.99,,2013-02-11 17:42:00,
2013-02-11 10:52:00,17.0,13.0,29.99,North,360,0.0,0.0,85,0.00,,,-99.99,,2013-02-11 17:52:00,
2013-02-11 11:01:00,21.0,17.0,29.99,North,360,0.0,0.0,83,0.00,,,-99.99,,2013-02-11 18:01:00,
2013-02-11 11:11:00,21.0,17.0,29.99,North,360,0.0,0.0,83,0.00,,,-99.99,,2013-02-11 18:11:00,
2013-02-11 11:21:00,23.0,17.0,29.99,North,360,0.0,0.0,79,0.00,,,-99.99,,2013-02-11 18:21:00,
2013-02-11 11:31:00,24.0,14.0,29.99,North,360,0.0,0.0,65,0.00,,,-99.99,,2013-02-11 18:31:00,
2013-02-11 11:41:00,25.0,16.0,29.99,North,360,0.0,0.0,67,0.00,,,-99.99,,2013-02-11 18:41:00,
2013-02-11 11:52:00,25.0,16.0,29.99,North,360,0.0,0.0,67,0.00,,,-99.99,,2013-02-11 18:52:00,
2013-02-11 12:01:00,23.0,16.0,30.00,North,360,0.0,0.0,73,0.00,,,-99.99,,2013-02-11 19:01:00,
2013-02-11 12:11:00,26.0,19.0,29.99,North,360,0.0,0.0,73,0.00,,,-99.99,,2013-02-11 19:11:00,
2013-02-11 12:21:00,26.0,19.0,29.99,North,360,0.0,0.0,73,0.00,,,-99.99,,2013-02-11 19:21:00,
2013-02-11 12:31:00,27.0,19.0,29.99,North,360,0.0,0.0,71,0.00,,,-99.99,,2013-02-11 19:31:00,
2013-02-11 12:41:00,27.0,19.0,29.99,North,360,0.0,0.0,71,0.00,,,-99.99,,2013-02-11 19:41:00,
2013-02-11 12:51:00,28.0,20.0,29.99,North,360,0.0,0.0,73,0.00,,,-99.99,,2013-02-11 19:51:00,
2013-02-11 13:01:00,29.0,17.0,29.98,North,360,0.0,0.0,60,0.01,,,-99.99,,2013-02-11 20:01:00,
2013-02-11 13:11:00,29.0,17.0,29.98,North,360,0.0,0.0,60,0.01,,,-99.99,,2013-02-11 20:11:00,
2013-02-11 13:21:00,29.0,17.0,29.98,North,360,0.0,0.0,60,0.01,,,-99.99,,2013-02-11 20:21:00,
2013-02-11 13:31:00,33.0,17.0,29.98,North,360,0.0,0.0,51,0.01,,,-99.99,,2013-02-11 20:31:00,
2013-02-11 13:41:00,39.0,22.0,29.97,North,360,0.0,0.0,50,0.01,,,-99.99,,2013-02-11 20:41:00,
2013-02-11 13:52:00,39.0,22.0,29.97,North,360,0.0,0.0,50,0.01,,,-99.99,,2013-02-11 20:52:00,
2013-02-11 14:02:00,41.0,18.0,29.97,North,360,0.0,0.0,39,0.00,,,-99.99,,2013-02-11 21:02:00,
2013-02-11 14:41:00,33.0,16.0,29.97,North,360,0.0,0.0,50,0.00,,,-99.99,,2013-02-11 21:41:00,
2013-02-11 14:52:00,33.0,16.0,29.97,North,360,0.0,0.0,50,0.00,,,-99.99,,2013-02-11 21:52:00,
2013-02-11 15:01:00,31.0,16.0,29.97,North,360,0.0,0.0,53,0.00,,,-99.99,,2013-02-11 22:01:00,
2013-02-11 15:11:00,34.0,16.0,29.98,North,360,0.0,0.0,48,0.00,,,-99.99,,2013-02-11 22:11:00,
2013-02-11 15:21:00,34.0,16.0,29.98,North,360,0.0,0.0,48,0.00,,,-99.99,,2013-02-11 22:21:00,
2013-02-11 15:31:00,33.0,16.0,29.97,North,360,0.0,0.0,49,0.00,,,-99.99,,2013-02-11 22:31:00,
2013-02-11 15:41:00,33.0,16.0,29.97,North,360,0.0,0.0,49,0.00,,,-99.99,,2013-02-11 22:41:00,
2013-02-11 15:52:00,32.0,16.0,29.98,North,360,0.0,0.0,51,0.00,,,-99.99,,2013-02-11 22:52:00,
2013-02-11 16:01:00,32.0,16.0,29.98,North,360,0.0,0.0,51,0.00,,,-99.99,,2013-02-11 23:01:00,
2013-02-11 16:11:00,32.0,16.0,29.98,North,360,0.0,0.0,51,0.00,,,-99.99,,2013-02-11 23:11:00,
2013-02-11 16:21:00,31.0,15.0,29.98,North,360,0.0,0.0,50,0.00,,,-99.99,,2013-02-11 23:21:00,
2013-02-11 16:32:00,30.0,14.0,29.98,North,360,0.0,0.0,51,0.00,,,-99.99,,2013-02-11 23:32:00,
2013-02-11 16:42:00,30.0,14.0,29.98,North,360,0.0,0.0,51,0.00,,,-99.99,,2013-02-11 23:42:00,
2013-02-11 16:52:00,30.0,14.0,29.98,North,360,0.0,0.0,51,0.00,,,-99.99,,2013-02-11 23:52:00,
2013-02-11 17:01:00,30.0,14.0,29.98,North,360,0.0,0.0,51,0.00,,,-99.99,,2013-02-12 00:01:00,
2013-02-11 18:01:00,29.0,20.0,30.01,North,360,0.0,0.0,68,0.00,,,-99.99,,2013-02-12 01:01:00,
2013-02-11 18:11:00,29.0,20.0,30.01,North,360,0.0,0.0,68,0.00,,,-99.99,,2013-02-12 01:11:00,
2013-02-11 18:21:00,29.0,20.0,30.01,North,360,0.0,0.0,68,0.00,,,-99.99,,2013-02-12 01:21:00,
2013-02-11 18:31:00,27.0,18.0,30.02,North,360,0.0,0.0,67,0.00,,,-99.99,,2013-02-12 01:31:00,
2013-02-11 18:41:00,27.0,18.0,30.02,North,360,0.0,0.0,67,0.00,,,-99.99,,2013-02-12 01:41:00,
2013-02-11 18:51:00,27.0,18.0,30.02,North,360,0.0,0.0,67,0.00,,,-99.99,,2013-02-12 01:51:00,
2013-02-11 19:00:00,20.0,13.0,30.03,North,360,0.0,0.0,73,0.00,,,-99.99,,2013-02-12 02:00:00,
2013-02-11 19:01:00,27.0,18.0,30.02,North,360,0.0,0.0,67,0.00,,,-99.99,,2013-02-12 02:01:00,
2013-02-11 19:11:00,20.0,13.0,30.03,North,360,0.0,0.0,73,0.00,,,-99.99,,2013-02-12 02:11:00,
2013-02-11 19:22:00,20.0,13.0,30.03,North,360,0.0,0.0,73,0.00,,,-99.99,,2013-02-12 02:22:00,
2013-02-11 19:32:00,20.0,13.0,30.03,North,360,0.0,0.0,73,0.00,,,-99.99,,2013-02-12 02:32:00,
2013-02-11 19:42:00,20.0,13.0,30.03,North,360,0.0,0.0,73,0.00,,,-99.99,,2013-02-12 02:42:00,
2013-02-11 19:52:00,20.0,13.0,30.03,North,360,0.0,0.0,73,0.00,,,-99.99,,2013-02-12 02:52:00,
2013-02-11 20:11:00,17.0,12.0,30.04,North,360,0.0,0.0,80,0.00,,,-99.99,,2013-02-12 03:11:00,
2013-02-11 20:21:00,17.0,12.0,30.04,North,360,0.0,0.0,80,0.00,,,-99.99,,2013-02-12 03:21:00,
2013-02-11 20:31:00,16.0,11.0,30.05,North,360,0.0,0.0,82,0.00,,,-99.99,,2013-02-12 03:31:00,
2013-02-11 20:41:00,16.0,13.0,30.06,North,360,0.0,0.0,89,0.00,,,-99.99,,2013-02-12 03:41:00,
2013-02-11 20:51:00,16.0,13.0,30.06,North,360,0.0,0.0,89,0.00,,,-99.99,,2013-02-12 03:51:00,
2013-02-11 21:01:00,16.0,13.0,30.06,North,360,0.0,0.0,89,0.00,,,-99.99,,2013-02-12 04:01:00,
2013-02-11 21:11:00,16.0,13.0,30.06,North,360,0.0,0.0,89,0.00,,,-99.99,,2013-02-12 04:11:00,
2013-02-11 21:21:00,16.0,13.0,30.06,North,360,0.0,0.0,89,0.00,,,-99.99,,2013-02-12 04:21:00,
2013-02-11 21:31:00,14.0,12.0,30.06,North,360,0.0,0.0,92,0.00,,,-99.99,,2013-02-12 04:31:00,
2013-02-11 21:42:00,14.0,12.0,30.06,North,360,0.0,0.0,92,0.00,,,-99.99,,2013-02-12 04:42:00,
2013-02-11 21:52:00,14.0,12.0,30.06,North,360,0.0,0.0,92,0.00,,,-99.99,,2013-02-12 04:52:00,
2013-02-11 22:01:00,11.0,9.0,30.07,North,360,0.0,0.0,93,0.00,,,-99.99,,2013-02-12 05:01:00,
2013-02-11 22:11:00,13.0,11.0,30.07,North,360,0.0,0.0,93,0.00,,,-99.99,,2013-02-12 05:11:00,
2013-02-11 22:21:00,13.0,11.0,30.07,North,360,0.0,0.0,93,0.00,,,-99.99,,2013-02-12 05:21:00,
2013-02-11 22:31:00,13.0,11.0,30.07,North,360,0.0,0.0,92,0.00,,,-99.99,,2013-02-12 05:31:00,
2013-02-11 22:41:00,13.0,11.0,30.07,North,360,0.0,0.0,92,0.00,,,-99.99,,2013-02-12 05:41:00,
2013-02-11 22:52:00,13.0,11.0,30.07,North,360,0.0,0.0,92,0.00,,,-99.99,,2013-02-12 05:52:00,
2013-02-11 23:01:00,13.0,11.0,30.07,North,360,0.0,0.0,92,0.00,,,-99.99,,2013-02-12 06:01:00,
2013-02-11 23:11:00,13.0,11.0,30.07,North,360,0.0,0.0,92,0.00,,,-99.99,,2013-02-12 06:11:00,
2013-02-11 23:32:00,10.0,8.0,30.07,North,360,0.0,0.0,92,0.00,,,-99.99,,2013-02-12 06:32:00,
2013-02-11 23:42:00,10.0,8.0,30.07,North,360,0.0,0.0,92,0.00,,,-99.99,,2013-02-12 06:42:00,
2013-02-11 23:52:00,10.0,8.0,30.07,North,360,0.0,0.0,92,0.00,,,-99.99,,2013-02-12 06:52:00,